Regional Weather Roundup
Issued by NWS

Home | Current Version | Previous Version | Graphics & Text | Print | Product List | Glossary On
Versions: 1 2 3 4 5 6 7 8 9 10 11 12 13 14 15 16 17 18 19 20 21 22 23 24 25 26 27 28 29 30 31 32 33 34 35 36 37 38 39 40 41 42 43 44 45 46 47 48 49 50
000
ASUS43 KBIS 010010
RWRND

NORTH DAKOTA REGIONAL WEATHER ROUNDUP
NATIONAL WEATHER SERVICE BISMARCK ND
700 PM CDT TUE MAY 31 2016

NOTE: "FAIR" INDICATES FEW OR NO CLOUDS BELOW 12,000 FEET WITH NO
SIGNIFICANT WEATHER AND/OR OBSTRUCTIONS TO VISIBILITY.


NDZ001>003-009>011-017-010100-
NORTHWEST NORTH DAKOTA

CITY           SKY/WX    TMP DP  RH WIND       PRES   REMARKS
WILLISTON      LGT RAIN  54  49  83 NW18G26   29.90R
6HR MIN TEMP:  53; 6HR MAX TEMP:  54; 6HR PCP:  0.26;

MINOT          CLOUDY    56  50  80 NW26G35   29.71R
MINOT AFB      LGT RAIN  52  51  95 NW23G31   29.70R FOG
$$

NDZ018>021-031>035-040>046-010100-
SOUTHWEST NORTH DAKOTA

CITY           SKY/WX    TMP DP  RH WIND       PRES   REMARKS
BISMARCK       LGT RAIN  57  54  89 NW16G30   29.69R
6HR MIN TEMP:  53; 6HR MAX TEMP:  63; 6HR PCP:  0.12;

DICKINSON      LGT RAIN  50  46  86 NW20G35   29.86R
GARRISON         N/A     55  49  80 NW32G41   29.71R
6HR MIN TEMP:  55; 6HR MAX TEMP:  63;

HETTINGER ARPT LGT RAIN  50  47  89 NW22G30   29.91R
$$

NDZ004>008-012>016-024-026-027-054-010100-
NORTHEAST NORTH DAKOTA

CITY           SKY/WX    TMP DP  RH WIND       PRES   REMARKS
GRAND FORKS    CLOUDY    62  50  64 SW16G24   29.66S
GRND FRKS AFB  MOSUNNY   61  49  65 S9        29.65S
DEVILS LAKE    MOSUNNY   57  47  69 SW7       29.63F
$$

NDZ022-023-025-028>030-036>039-047>053-010100-
SOUTHEAST NORTH DAKOTA

CITY           SKY/WX    TMP DP  RH WIND       PRES   REMARKS
FARGO          MOSUNNY   70  44  39 S17G24    29.66F
6HR MIN TEMP:  66; 6HR MAX TEMP:  71;

JAMESTOWN      LGT RAIN  55  52  89 SW3       29.63F
$$





USA.gov is the U.S. government's official web portal to all federal, state and local government web resources and services.